COSMOS 2251 DEB, 35442

Orbit data source: Space-Track

COSMOS 2251 DEB, 35442 is space debris in LEO originally from a launch on Wed, 16 Jun 1993 UTC launched from the Plesetsk Missile And Space Complex (PKMTR). The debris from Iridium 33, an American commercial communications satellite, has been tracked extensively since its accidental collision with the defunct Russian satellite Cosmos 2251 in 2009. This event, occurring at high speed in low Earth orbit (LEO), generated thousands of pieces of space debris, significantly increasing the risk of further collisions. The Iridium 33 debris cloud has impacted space traffic management and orbital debris mitigation strategies, making it a subject of ongoing study in space situational awareness.

Loading next visibility...
Identifier
35442, 1993-036AKL
Orbit
LEO
Country
Flag of CISCIS
Related business
Manufacturer
Unknown
Mission
Spacecraft
Bus & Motor
Unknown
Mass
Unknown
Launch date (UTC)
1993-06-16 (33 years ago)
Launch vehicle
Unknown
Launch site
Plesetsk Missile And Space Complex (PKMTR)
Object type
Payload
Rocket body
Debris
Shape & HBR
Unknown shape, 0.1 m
Radar Cross Section
Small (<0.1 m²)

Expand to show TLE details & history
Last TLE update: 9 hours ago

TLE from 9 hours ago
0 COSMOS 2251 DEB
1 35442U 93036AKL 26236.61110737  .00016097  00000-0  14729-2 0  9992
2 35442  74.0234 308.6677 0006604 310.2478  49.8128 14.94956096911497
Epoch: 2026-08-24T14:39Z
TLE epoch observation values (Epoch: 2026-08-24T14:39:59.676Z)
Latitude
-0.00003°
Longitude
115.77871°
Altitude
582.225 km
Speed
7.571 km/s
True Right ascension
20h 34m 40s
True Declination
0° 00' 00"
Sunlit
Object was in full shadow at epoch
Visualization orbit readout
Latitude
Unknown
Longitude
Unknown
Altitude
Unknown
Speed
Unknown
Apparent Right ascension
Unknown
Apparent Declination
Unknown
Sunlit
N/A
Visualization observer readout
Local Sidereal Time
15:18:44
Azimuth
Unknown
Elevation
Unknown
Doppler factor
Unknown
Orbital elements
Apogee altitude
584.665 km
Perigee altitude
575.474 km
Semi-major axis
6,958.206 km
Eccentricity
0.00066
Inclination
74.0234°
RAAN
308.6677°
Arg. of periapsis
310.2478°
True anomaly
49.87064°
Mean anomaly
49.8128°
Eccentric anomaly
49.84172°
Mean motion
3.73936 °/min
Orbital period
96.27 mins
BSTAR
0.0014729
Loading maneuver chart data...
Computing Atmospheric mass density...

Documentation

Showing up to 5 results
|